Location: Unspecified
(0.0000°N, 0.0000°E)
Time: 03:19:20
(UTC+00:00)

A-11 Canister half - Pass Details

Date: 13 December 2018
Orbit: 1516 x 1683 km, 47.2° (Epoch: 18 March)

Event Time Altitude Azimuth Distance (km) Brightness Sun altitude
Exits shadow 01:33:59 14° 186° (S) 3,532 11.0 -56.5°
Drops below altitude 10° 01:35:30 10° 179° (S) 3,837 11.3 -56.2°
Sets 01:39:30 0° 165° (SSE) 4,794 12.0 -55.5°
